[[{"header":{"parameterUnit":"m.s-1","parameterCategory":1,"la1":30.2991,"la2":30.254,"lo1":-89.0895,"lo2":-89.0444,"dy":0.0017,"dx":0.0017,"nx":28,"ny":28,"refTime":"2024-06-19T03:00:00:Z","depth":0,"parameterNumber":2,"parameterNumberName":"U-component_of_WINDS"},"data":[0,0,0,0,0,0,0,0,0,0,0,0,0,0,0,0,0,0,0,0,0,0,0,0,0,0,0,0,0,0,0,0,0,0,0,0,0,0,0,0,0,0,0,0,0,0,0,0,0,0,0,0,0,0,0,0,0,0,-7.0407,-7.0408,0,-7.0459,-7.046,-7.0461,-7.022,-7.0213,-7.0206,-7.02,-7.026,-7.0268,-7.0276,0,0,0,0,0,0,0,0,0,0,0,0,0,-7.0105,-7.0112,-7.0407,-7.0408,-7.0408,-7.0459,-7.046,-7.0461,-7.0222,-7.0213,-7.0205,-7.0197,-7.0258,-7.0267,-7.0277,0,0,0,0,0,0,0,0,0,0,0,0,0,-7.0205,-7.0114,-7.0407,-7.0295,-7.0286,-7.0459,-7.046,-7.0461,-7.0223,-7.0213,-7.0202,-7.0193,-7.0254,-7.0266,-7.0278,-7.0564,0,0,-7.0316,-7.0321,0,0,0,0,0,0,0,0,-7.02,-7.0217,-7.0311,-7.0303,-7.0293,-7.0322,-7.0375,-7.0496,-7.0226,-7.0247,-7.02,-7.0187,-7.029,-7.0299,-7.0332,-7.0567,-7.057,-7.0317,-7.0324,-7.0329,-7.0333,0,0,0,0,0,0,0,-7.0193,-7.0213,-7.0428,-7.0313,-7.0302,-7.0244,-7.0246,-7.0397,-7.0327,-7.0245,-7.0227,-7.0236,-7.0283,-7.0321,-7.0331,-7.0571,-7.0316,-7.0327,-7.0335,-7.034,-7.1042,-7.1053,0,0,0,0,0,0,-7.02,-7.0209,-7.0426,-7.0429,-7.0219,-7.0258,-7.0261,-7.0324,-7.0325,-7.0315,-7.0245,-7.0225,-7.0305,-7.0317,-7.0333,-7.0666,-7.0329,-7.0341,-7.0348,-7.1031,-7.1044,-7.1057,0,0,0,0,0,0,-7.0195,-7.0222,-7.0424,-7.0314,-7.0336,-7.0274,-7.0347,-7.033,-7.0367,-7.0325,-7.0312,-7.0296,-7.0297,-7.0315,-7.0508,-7.0665,-7.0346,-7.0357,-7.1017,-7.1035,-7.1051,-7.1337,0,0,0,0,0,0,-7.0187,-7.0221,-7.0328,-7.0319,-7.0342,-7.0598,-7.0357,-7.0339,-7.0388,-7.0362,-7.0369,-7.0361,-7.029,-7.0491,-7.052,-7.0676,-7.0367,-7.1003,-7.1025,-7.1045,-7.1313,-7.1361,-7.1403,0,0,0,0,0,-7.0177,-7.0409,-7.0335,-7.0363,-7.0475,-7.0607,-7.0621,-7.0533,-7.0402,-7.0509,-7.0482,-7.036,-7.0643,-7.0512,-7.0543,-7.0705,-7.0993,-7.1019,-7.1044,-7.1293,-7.1352,-7.1402,0,0,0,0,0,0,-7.0441,-7.0405,-7.0323,-7.0558,-7.0587,-7.0566,-7.0699,-7.0599,-7.0667,-7.0641,-7.0531,-7.0534,-7.0746,-7.0745,-7.06,-7.0982,-7.0795,-7.0828,-7.0974,-7.103,-7.1074,-7.107,-7.0377,0,0,0,0,0,-7.0526,-7.0635,-7.0598,-7.0809,-7.0828,-7.0762,-7.0816,-7.0746,-7.0773,-7.0784,-7.0771,-7.0804,-7.0899,-7.0964,-7.105,-7.1312,-7.131,-7.1439,-7.1484,-7.1521,-7.155,-7.1688,-7.1744,-7.114,-7.114,-7.114,0,0,-7.0704,-7.0698,-7.0774,-7.0862,-7.0876,-7.0993,-7.0774,-7.0907,-7.0992,-7.0805,-7.0984,-7.0977,-7.1006,-7.1234,-7.1333,-7.1239,-7.1717,-7.1553,-7.1583,-7.1592,-7.172,-7.1777,-7.1828,-7.1158,-7.1155,-7.1152,0,0,-7.1086,-7.1093,-7.1268,-7.1287,-7.131,-7.1264,-7.1307,-7.1301,-7.1288,-7.1466,-7.1327,-7.1429,-7.1597,-7.1622,-7.1657,-7.205,-7.194,-7.2081,-7.2316,-7.2451,-7.2499,-7.254,-7.2679,-7.2731,-7.2111,-7.2112,-7.2112,0,-7.1305,-7.1472,-7.1372,-7.1513,-7.1557,-7.139,-7.1567,-7.1591,-7.1643,-7.1677,-7.1571,-7.1776,-7.1784,-7.2015,-7.211,-7.2145,-7.219,-7.2079,-7.2499,-7.254,-7.2578,-7.2709,-7.2762,-7.2128,-7.2127,-7.2125,-7.2123,0,-7.1739,-7.1858,-7.1997,-7.2048,-7.2107,-7.2267,-7.2192,-7.2264,-7.2189,-7.2155,-7.2339,-7.2342,-7.2425,-7.2475,-7.2405,-7.2697,-7.2637,-7.2518,-7.2328,-7.2654,-7.2775,-7.2825,-7.2153,-7.2147,-7.2142,-7.2137,0,0,-7.2289,-7.2282,-7.2334,-7.2355,-7.2369,-7.2459,-7.2612,-7.269,-7.2754,-7.2796,-7.2921,-7.3066,-7.2954,-7.2995,-7.2925,-7.3044,-7.3354,-7.2909,-7.2908,-7.2991,-7.3676,-7.3765,-7.3825,-7.3281,-7.3291,-7.3298,-7.3673,0,-7.2663,-7.2919,-7.2833,-7.3095,-7.3203,-7.3047,-7.3179,-7.3203,-7.3176,-7.3265,-7.3235,-7.334,-7.3185,-7.3208,-7.3319,-7.3293,-7.349,-7.3265,-7.3398,-7.3404,-7.3394,-7.3889,-7.3984,-7.4337,-7.372,-7.3728,-7.3734,0,-7.3133,-7.319,-7.3462,-7.3456,-7.3498,-7.3618,-7.3683,-7.377,-7.3795,-7.3766,-7.3811,-7.3717,-7.3867,-7.3678,-7.3884,-7.3733,-7.3782,-7.3778,-7.379,-7.3798,-7.3588,-7.391,-7.4448,-7.4501,-7.3808,-7.3802,-7.3797,0,-7.3505,-7.3651,-7.3831,-7.3854,-7.3852,-7.394,-7.3944,-7.3957,-7.401,-7.4068,-7.4101,-7.4177,-7.4219,-7.4281,-7.4209,-7.4079,-7.4426,-7.4231,-7.4408,-7.441,-7.4487,-7.4483,-7.504,-7.4522,-7.4521,-7.452,-7.4519,0,-7.3931,-7.4103,-7.3998,-7.411,-7.4298,-7.4199,-7.4389,-7.4375,-7.4388,-7.4495,-7.4366,-7.447,-7.437,-7.4466,-7.4411,-7.459,-7.461,-7.4592,-7.4576,-7.4603,-7.4606,-7.4634,-7.4607,-7.4534,-7.4531,-7.4528,-7.4526,0,-7.4378,-7.4315,-7.4501,-7.4483,-7.4483,-7.4623,-7.4608,-7.4711,-7.4674,-7.4811,-7.4838,-7.4782,-7.4887,-7.4822,-7.493,-7.4893,-7.5126,-7.5076,-7.5117,-7.5103,-7.5283,-7.5267,-7.5877,-7.5951,-7.5387,-7.5392,-7.5397,0,-7.4653,-7.4781,-7.4776,-7.4837,-7.4848,-7.4949,-7.5001,-7.4909,-7.4969,-7.5006,-7.5105,-7.5199,-7.5268,-7.5444,-7.5414,-7.5496,-7.5447,-7.5655,-7.5458,-7.5482,-7.5449,-7.5442,-7.5454,-7.5695,-7.5701,-7.5707,-7.5711,0,-7.5147,-7.5109,-7.5188,-7.5258,-7.5323,-7.5373,-7.5413,-7.5472,-7.5379,-7.5453,-7.5558,-7.5612,-7.5721,-7.5816,-7.5885,-7.589,-7.5787,-7.5773,-7.5818,-7.5847,-7.5865,-7.5857,-7.5224,-7.576,-7.5755,-7.5751,-7.5749,-7.5747,-7.5515,-7.5621,-7.5634,-7.5727,-7.5747,-7.5787,-7.5882,-7.5857,-7.5941,-7.6021,-7.5962,-7.6086,-7.6107,-7.6189,-7.6208,-7.6305,-7.622,-7.6286,-7.6302,-7.632,-7.6344,-7.5851,-7.6317,-7.6316,-7.6314,-7.6313,-7.6312,0,-7.6001,-7.6002,-7.6088,-7.6146,-7.622,-7.6113,-7.6152,-7.6221,-7.6331,-7.6358,-7.6429,-7.655,-7.6641,-7.6618,-7.6701,-7.6783,-7.6738,-7.6808,-7.68,-7.6803,-7.6415,-7.6367,-7.6843,-7.6843,-7.6843,-7.6843,-7.6843,-7.6842,-7.6263,-7.6436,-7.6401,-7.6583,-7.6582,-7.6701,-7.6732,-7.6769,-7.679,-7.693,-7.7004,-7.6987,-7.6995,-7.7077,-7.7156,-7.7147,-7.7184,-7.7271,-7.7246,-7.6883,-7.6831,-7.678,-7.6735,-7.728,-7.7281,-7.7625,-7.7628,-7.763]},{"header":{"parameterUnit":"m.s-1","parameterCategory":1,"la1":30.2991,"la2":30.254,"lo1":-89.0895,"lo2":-89.0444,"dy":0.0017,"dx":0.0017,"nx":28,"ny":28,"refTime":"2024-06-19T03:00:00:Z","depth":0,"parameterNumber":3,"parameterNumberName":"V-component_of_WINDS"},"data":[0,0,0,0,0,0,0,0,0,0,0,0,0,0,0,0,0,0,0,0,0,0,0,0,0,0,0,0,0,0,0,0,0,0,0,0,0,0,0,0,0,0,0,0,0,0,0,0,0,0,0,0,0,0,0,0,0,0,-0.1659,-0.1659,0,-0.1647,-0.1647,-0.1646,-0.1696,-0.1698,-0.1699,-0.17,-0.1683,-0.1681,-0.168,0,0,0,0,0,0,0,0,0,0,0,0,0,-0.172,-0.1718,-0.1659,-0.1659,-0.1659,-0.1647,-0.1647,-0.1646,-0.1696,-0.1698,-0.1699,-0.1701,-0.1684,-0.1682,-0.1679,0,0,0,0,0,0,0,0,0,0,0,0,0,-0.1699,-0.1718,-0.1659,-0.1682,-0.1684,-0.1647,-0.1647,-0.1646,-0.1695,-0.1698,-0.17,-0.1702,-0.1684,-0.1682,-0.1679,-0.1618,0,0,-0.1671,-0.1669,0,0,0,0,0,0,0,0,-0.17,-0.1696,-0.1679,-0.168,-0.1683,-0.1675,-0.1662,-0.1637,-0.1695,-0.1691,-0.17,-0.1703,-0.1678,-0.1676,-0.1669,-0.1617,-0.1616,-0.167,-0.1669,-0.1668,-0.1667,0,0,0,0,0,0,0,-0.1701,-0.1697,-0.1654,-0.1678,-0.1681,-0.1691,-0.1691,-0.1657,-0.1672,-0.1691,-0.1695,-0.1693,-0.168,-0.1672,-0.1669,-0.1616,-0.1671,-0.1668,-0.1666,-0.1665,-0.151,-0.1508,0,0,0,0,0,0,-0.17,-0.1698,-0.1654,-0.1654,-0.1697,-0.1688,-0.1688,-0.1675,-0.1673,-0.1675,-0.1691,-0.1696,-0.1675,-0.1672,-0.1669,-0.1595,-0.1668,-0.1665,-0.1663,-0.1512,-0.1509,-0.1507,0,0,0,0,0,0,-0.1702,-0.1696,-0.1655,-0.1677,-0.1673,-0.1685,-0.1671,-0.1674,-0.1666,-0.1673,-0.1675,-0.168,-0.1677,-0.1672,-0.163,-0.1595,-0.1664,-0.1661,-0.1515,-0.1511,-0.1508,-0.1447,0,0,0,0,0,0,-0.1703,-0.1696,-0.1674,-0.1676,-0.1671,-0.1618,-0.1668,-0.1672,-0.1661,-0.1667,-0.1663,-0.1665,-0.1678,-0.1634,-0.1627,-0.1592,-0.1659,-0.1518,-0.1514,-0.1509,-0.1452,-0.1442,-0.1433,0,0,0,0,0,-0.1705,-0.1657,-0.1673,-0.1668,-0.1645,-0.1616,-0.1613,-0.1631,-0.1658,-0.1635,-0.164,-0.1665,-0.16,-0.1629,-0.1622,-0.1586,-0.1521,-0.1515,-0.151,-0.1457,-0.1444,-0.1433,0,0,0,0,0,0,-0.165,-0.1658,-0.1676,-0.1628,-0.1621,-0.1624,-0.1596,-0.1617,-0.1601,-0.1607,-0.1628,-0.1627,-0.158,-0.1579,-0.1611,-0.1525,-0.1565,-0.1557,-0.1527,-0.1515,-0.1505,-0.1506,-0.1657,0,0,0,0,0,-0.1633,-0.161,-0.1618,-0.1575,-0.157,-0.1584,-0.1572,-0.1586,-0.158,-0.1576,-0.1578,-0.1569,-0.1546,-0.1531,-0.1511,-0.1453,-0.1451,-0.1424,-0.1415,-0.1407,-0.1399,-0.1366,-0.1354,-0.1488,-0.1488,-0.1488,0,0,-0.1596,-0.1597,-0.1582,-0.1564,-0.156,-0.1534,-0.1581,-0.1552,-0.1533,-0.1572,-0.1531,-0.1532,-0.1523,-0.1472,-0.1449,-0.1469,-0.1362,-0.1399,-0.1393,-0.139,-0.1359,-0.1346,-0.1335,-0.1485,-0.1485,-0.1486,0,0,-0.1515,-0.1515,-0.1478,-0.1474,-0.1468,-0.1477,-0.1468,-0.1468,-0.147,-0.143,-0.1458,-0.1434,-0.1396,-0.1388,-0.1378,-0.1293,-0.1314,-0.1286,-0.1234,-0.1201,-0.1191,-0.1181,-0.1149,-0.1137,-0.1279,-0.1279,-0.1279,0,-0.147,-0.1434,-0.1456,-0.1425,-0.1415,-0.145,-0.1411,-0.1405,-0.1393,-0.1384,-0.1407,-0.1358,-0.1355,-0.1301,-0.128,-0.1272,-0.126,-0.1286,-0.1191,-0.1182,-0.1173,-0.1142,-0.113,-0.1275,-0.1275,-0.1276,-0.1276,0,-0.1377,-0.1352,-0.1322,-0.131,-0.1297,-0.1262,-0.1276,-0.126,-0.1275,-0.128,-0.1238,-0.1235,-0.1214,-0.1202,-0.1217,-0.115,-0.1162,-0.1188,-0.1228,-0.1156,-0.1127,-0.1116,-0.127,-0.1271,-0.1272,-0.1273,0,0,-0.1262,-0.1262,-0.125,-0.1244,-0.124,-0.1219,-0.1185,-0.1166,-0.115,-0.1139,-0.1109,-0.1075,-0.1098,-0.1088,-0.1101,-0.1073,-0.1002,-0.1102,-0.1102,-0.1081,-0.0925,-0.0904,-0.089,-0.1017,-0.1015,-0.1013,-0.0925,0,-0.1181,-0.1124,-0.1142,-0.1083,-0.1059,-0.1091,-0.106,-0.1053,-0.1057,-0.1035,-0.1039,-0.1014,-0.1047,-0.1041,-0.1014,-0.1016,-0.0971,-0.1023,-0.0986,-0.0985,-0.0986,-0.0876,-0.0854,-0.0772,-0.0914,-0.0912,-0.0911,0,-0.108,-0.1066,-0.1005,-0.1003,-0.0993,-0.0966,-0.0948,-0.0928,-0.0919,-0.0924,-0.0911,-0.093,-0.0893,-0.0935,-0.0884,-0.0919,-0.0905,-0.0903,-0.09,-0.0896,-0.0942,-0.0866,-0.0746,-0.0733,-0.0894,-0.0895,-0.0896,0,-0.0999,-0.0965,-0.0924,-0.0918,-0.0915,-0.0895,-0.0892,-0.0886,-0.0872,-0.0856,-0.0847,-0.0827,-0.0815,-0.0797,-0.0809,-0.0839,-0.0754,-0.0798,-0.0755,-0.0754,-0.0735,-0.0736,-0.0608,-0.0729,-0.0729,-0.0729,-0.0729,0,-0.0906,-0.0867,-0.0887,-0.0861,-0.0818,-0.0838,-0.0793,-0.0794,-0.0788,-0.0761,-0.0788,-0.0762,-0.078,-0.0755,-0.0763,-0.0718,-0.0713,-0.0714,-0.0716,-0.071,-0.071,-0.07,-0.0705,-0.0726,-0.0727,-0.0727,-0.0728,0,-0.0808,-0.082,-0.0777,-0.0778,-0.0777,-0.0744,-0.0744,-0.0719,-0.0725,-0.0691,-0.0684,-0.0692,-0.0663,-0.0674,-0.0643,-0.0649,-0.059,-0.0601,-0.0593,-0.0595,-0.0551,-0.0554,-0.0412,-0.0393,-0.0527,-0.0526,-0.0525,0,-0.0747,-0.0717,-0.0715,-0.07,-0.0696,-0.0671,-0.0657,-0.0675,-0.0659,-0.0646,-0.0622,-0.0596,-0.0576,-0.0529,-0.053,-0.0506,-0.0515,-0.0467,-0.0512,-0.0506,-0.0512,-0.0513,-0.0509,-0.0457,-0.0456,-0.0455,-0.0454,0,-0.0636,-0.0644,-0.0624,-0.0605,-0.0588,-0.0574,-0.0562,-0.0548,-0.0565,-0.0545,-0.0517,-0.0502,-0.047,-0.0443,-0.0421,-0.0416,-0.0436,-0.044,-0.0428,-0.0421,-0.0417,-0.0416,-0.0567,-0.0443,-0.0444,-0.0444,-0.0445,-0.0446,-0.0553,-0.0528,-0.0522,-0.0498,-0.0491,-0.0479,-0.0455,-0.0458,-0.0436,-0.0412,-0.0424,-0.039,-0.038,-0.0353,-0.0345,-0.0317,-0.0336,-0.032,-0.0315,-0.031,-0.0304,-0.0423,-0.0313,-0.0314,-0.0314,-0.0314,-0.0315,0,-0.0443,-0.044,-0.0418,-0.0401,-0.0382,-0.0405,-0.0392,-0.0373,-0.0344,-0.0334,-0.0314,-0.028,-0.0253,-0.0253,-0.0227,-0.0205,-0.0213,-0.0197,-0.0198,-0.0196,-0.029,-0.0301,-0.0191,-0.0191,-0.0191,-0.0191,-0.0191,-0.0191,-0.0383,-0.034,-0.0346,-0.03,-0.0297,-0.0266,-0.0256,-0.0244,-0.0236,-0.0197,-0.0176,-0.0176,-0.0169,-0.0143,-0.0118,-0.0119,-0.0107,-0.0087,-0.009,-0.0178,-0.019,-0.0201,-0.0212,-0.0085,-0.0085,0.0001,0.0002,0.0002]}]]